Flag for U.S.A. Weather past 2 weeks in Concord, California, U.S.A.

Now
80 °F

Sunny.


Feels Like: 81 °F
Forecast: 61 / 82 °F
Wind: 13 mph from Northwest

Location: Buchanan Field

Current Time: Sep 20, 2014 at 3:45:55 PM

Latest Report: Sep 20, 2014 at 2:53 PM


Visibility: 10 mi

Pressure: 29.84 "Hg

Humidity: 47%

Dew point: 58 °F

Location of ConcordLocation

Historic Weather in Concord — Graph

°F

Concord temperature yesterday

Maximum temperature yesterday: 84 °F (at 1:53 PM)
Minimum temperature yesterday: 60 °F (at 5:53 AM)
Average temperature yesterday: 70 °F

Past Weeks' High & Low Weather Summary

 TemperatureHumidityPressure
High97 °F (Sep 11, 4:53 PM)93% (Sep 10, 1:53 AM)29.96 "Hg (Sep 10, 1:53 AM)
Low54 °F (Sep 10, 6:53 AM)11% (Sep 10, 4:53 PM)29.69 "Hg (Sep 17, 4:53 PM)
Average70 °F60%29.81 "Hg
* Reported Sep 5 2:53 PM — Sep 20 2:53 PM, Concord, Weather by CustomWeather, © 2014

Note: Actual official high and low records may vary slightly from our data, if they occured in-between our weather recording intervals... More about our weather records

Advertising

Concord weather history for previous 24 hours

 ConditionsComfort  
Time TempWeatherWind HumidityBarometerVisibility
2:53 PM
Sep 20
80 °FSunny.13 mph47%29.84 "Hg10 mi
1:53 PM80 °FSunny.17 mph41%29.85 "Hg10 mi
12:53 PM78 °FSunny.12 mph52%29.86 "Hg10 mi
11:53 AM73 °FSunny.13 mph62%29.88 "Hg10 mi
10:53 AM72 °FSunny.9 mph64%29.89 "Hg10 mi
5:53 AM61 °FClear.No wind87%29.84 "Hg10 mi
4:53 AM61 °FClear.No wind87%29.83 "Hg10 mi
3:53 AM62 °FClear.No wind86%29.83 "Hg10 mi
2:53 AM64 °FClear.9 mph84%29.83 "Hg10 mi
1:53 AM64 °FClear.12 mph84%29.84 "Hg10 mi
12:53 AM65 °FClear.9 mph81%29.83 "Hg10 mi
11:53 PM
Sep 19
66 °FClear.9 mph78%29.83 "Hg10 mi
10:53 PM69 °FClear.9 mph68%29.82 "Hg10 mi
9:53 PM70 °FClear.7 mph64%29.82 "Hg10 mi
8:53 PM71 °FPassing clouds.5 mph61%29.82 "Hg10 mi
7:53 PM73 °FPassing clouds.8 mph57%29.80 "Hg10 mi
6:53 PM76 °FSunny.8 mph50%29.79 "Hg10 mi
5:53 PM79 °FSunny.9 mph44%29.78 "Hg10 mi
4:53 PM81 °FSunny.13 mph44%29.79 "Hg10 mi
3:53 PM83 °FSunny.14 mph43%29.79 "Hg10 mi
Weather by CustomWeather, © 2014

See weather overviewHow to use our weather pages